Погода в Коураке

Россия / Новосибирская область     54°49′43″N   84°40′44″E
темп.,
°C
ветер,
м/с
пор.,
м/с
влажн.,
%
обл.,
%
осадки,
мм/ч
давл.,
гПа
погр.,
м
17 апреля, сб
сб1701:000с4998100 0.6 1016400
04:00−1ссв41094100 1.8 1017641
07:00−1с4896100 1.9 1019682
10:00−1ссв467598 0.1 10211019
13:000ссз457198 0.2 10231110
16:000с3461100 0.0 10241311
19:000с226260 0.1 10241005
22:00−4юв118433 0.0 102516
18 апреля, вс
вс1801:00−3ю2479100 0.0 1024137
04:00−2ююз3779100 0.0 1021406
07:00−2ююз41076100 0.0 1019630
10:00+1юз51072100 0.0 1017958
13:00+4юз6960100 0.0 10141428
16:00+5юз51062100 0.0 10111486
19:00+5ююз61371100 0.2 10081147
22:00+4юз61381100 1.6 1005746
19 апреля, пн
пн1901:00+2зюз61396100 6.1 1002877
04:00−1з9168290 0.7 10041206
07:00−7сз81384100 1.3 10121183
10:00−7сз71075100 0.2 10191169
13:00−4сз6852100 0.3 10221642
16:00−3сз5746100 0.0 10232071
19:00−4сз4650100 0.1 10251703
22:00−6ссз4562100 0.1 10261080
20 апреля, вт
вт2001:00−7ссз3563100 0.2 10271029
04:00−7сз3460100 0.1 10271057
07:00−7сз3461100 0.2 1028981
10:00−6сз3347100 0.1 10281479
13:00−4ссз3342100 0.1 10271712
16:00−2ссз3339100 0.0 10261942
19:00−3сз234199 0.0 10251526
22:00−5з1263100 0.0 102649
21 апреля, ср
ср2101:00−5юз247050 0.1 1025120
04:00−5юз376499 0.0 1024306
07:00−4ююз4859100 0.0 1024582
10:00−3ююз5752100 0.0 10241293
13:00−1ююз5757100 0.0 10231323
16:00−1ю3563100 0.1 10241165
19:00−1вюв3468100 0.2 1025798
22:00−2всв257764 0.1 1027170